This demonstration page uses our WeatherBlox Daily Observations layout. Learn more.

Left ArrowRight Arrow

Hourly Observations for October 8, 2019

Temp ( °F °C ) Dew Point ( °F °C ) Humidity (%) Winds ( mph kmh ) Pressure ( in mb ) Visibility ( mi km ) Precip ( " mm )
12:53 am 00:53 Clear 44 6.7 43 6.1 96 96 Calm 30.24 1024 10 16 0.00 0.00
1:53 am 01:53 Clear 43 6.1 43 6.1 100 100 Calm 30.24 1024 9 14 0.00 0.00
2:53 am 02:53 Clear with Mist and Fog 43 6.1 42 5.6 97 97 Calm 30.24 1024 5 8 0.00 0.00
3:18 am 03:18 Mostly Clear with Mist and Fog 42 5.6 41 5 96 96 Calm 30.25 1024 5 8 0.00 0.00
3:53 am 03:53 Clear 41 5 41 5 100 100 Calm 30.23 1024 10 16 0.00 0.00
4:53 am 04:53 Clear 41 5 41 5 100 100 Calm 30.24 1024 7 11 0.00 0.00
5:22 am 05:22 Mostly Clear 41 5 40 4.4 96 96 Calm 30.26 1025 7 11 0.00 0.00
5:53 am 05:53 Clear 40 4.4 39 3.9 97 97 Calm 30.24 1024 9 14 0.00 0.00
6:53 am 06:53 Clear 40 4.4 39 3.9 97 97 Calm 30.26 1025 9 14 0.00 0.00
7:53 am 07:53 Sunny 40 4.4 40 4.4 100 100 Calm 30.26 1025 10 16 0.00 0.00
8:53 am 08:53 Sunny 47 8.3 45 7.2 93 93 Calm 30.27 1025 10 16 0.00 0.00
9:53 am 09:53 Sunny 53 11.7 49 9.4 86 86 Calm 30.27 1025 10 16 0.00 0.00
10:53 am 10:53 Sunny 61 16.1 48 8.9 63 63 E 5 7 30.27 1025 10 16 0.00 0.00
11:53 am 11:53 Sunny 66 18.9 45 7.2 47 47 NE 8 13 30.26 1025 10 16 0.00 0.00
12:53 pm 12:53 Sunny 70 21.1 42 5.6 37 37 E 13 20 30.24 1024 10 16 0.00 0.00
1:53 pm 13:53 Sunny 71 21.7 41 5 34 34 E 15 24 30.21 1023 10 16 0.00 0.00
2:53 pm 14:53 Sunny 72 22.2 40 4.4 31 31 E 6 9 30.18 1022 10 16 0.00 0.00
3:53 pm 15:53 Sunny 73 22.8 40 4.4 30 30 E 8 13 30.17 1022 10 16 0.00 0.00
4:53 pm 16:53 Sunny 73 22.8 40 4.4 30 30 E 10 17 30.15 1021 10 16 0.00 0.00
5:53 pm 17:53 Sunny 70 21.1 40 4.4 34 34 E 9 15 30.15 1021 10 16 0.00 0.00
6:53 pm 18:53 Sunny 65 18.3 39 3.9 39 39 E 6 9 30.16 1021 10 16 0.00 0.00
7:53 pm 19:53 Hazy 52 11.1 45 7.2 77 77 Calm 30.18 1022 3 4 0.00 0.00
8:01 pm 20:01 Hazy 52 11.1 45 7.2 77 77 Calm 30.18 1022 3 5 0.00 0.00
8:53 pm 20:53 Clear 50 10 45 7.2 83 83 E 5 7 30.18 1022 10 16 0.00 0.00
9:53 pm 21:53 Clear 49 9.4 45 7.2 86 86 E 3 6 30.19 1022 10 16 0.00 0.00
10:53 pm 22:53 Clear 48 8.9 44 6.7 86 86 Calm 30.18 1022 10 16 0.00 0.00
11:53 pm 23:53 Clear 46 7.8 44 6.7 93 93 Calm 30.18 1022 10 16 0.00 0.00

Powered by AerisWeather